| time (UTC) | temp F | wind direction | speed knots | gust knots | rain 1hr in | rain 24hr in | rain mn in | humidity % | barometer mb |
| 20260503193006 | 77 | 229 | 0.0 | 1.7 | 0.00 | 0.00 | 0.00 | 49 | 1013.5 |
| 20260503191521 | 76 | 83 | 1.7 | 3.5 | 0.00 | 0.00 | 0.00 | 46 | 1013.7 |
| 20260503190008 | 77 | 200 | 0.0 | 1.7 | 0.00 | 0.00 | 0.00 | 43 | 1013.8 |
| 20260503184521 | 78 | 172 | 0.0 | 0.0 | 0.00 | 0.00 | 0.00 | 48 | 1014.0 |
| 20260503183022 | 76 | 214 | 0.0 | 1.7 | 0.00 | 0.00 | 0.00 | 51 | 1014.2 |
| 20260503181521 | 75 | 203 | 0.0 | 1.7 | 0.00 | 0.00 | 0.00 | 52 | 1014.2 |
| 20260503180008 | 75 | 192 | 0.0 | 0.9 | 0.00 | 0.00 | 0.00 | 52 | 1014.2 |
| 20260503174519 | 75 | 205 | 0.0 | 0.9 | 0.00 | 0.00 | 0.00 | 52 | 1014.2 |
| 20260503173005 | 74 | 151 | 0.0 | 1.7 | 0.00 | 0.00 | 0.00 | 51 | 1014.4 |
| 20260503171536 | 73 | 217 | 0.0 | 0.9 | 0.00 | 0.00 | 0.00 | 52 | 1014.4 |
| 20260503081505 | 53 | 123 | 0.0 | 0.0 | 0.00 | 0.00 | 0.00 | 91 | 1015.2 |
| 20260503071510 | 55 | 123 | 0.0 | 0.0 | 0.00 | 0.00 | 0.00 | 89 | 1015.2 |
| 20260503054519 | 57 | 203 | 0.0 | 0.0 | 0.00 | 0.00 | 0.00 | 86 | 1015.0 |
| 20260503053018 | 58 | 203 | 0.0 | 0.0 | 0.00 | 0.00 | 0.00 | 85 | 1015.0 |
| 20260503051513 | 59 | 203 | 0.0 | 0.0 | 0.00 | 0.00 | 0.00 | 83 | 1014.9 |
| 20260503050025 | 60 | 203 | 0.0 | 0.0 | 0.00 | 0.00 | 0.00 | 81 | 1014.8 |
| 20260503044537 | 60 | 203 | 0.0 | 0.0 | 0.00 | 0.00 | 0.00 | 79 | 1014.8 |
| 20260503043023 | 61 | 203 | 0.0 | 0.0 | 0.00 | 0.00 | 0.00 | 78 | 1014.7 |
| 20260503041540 | 62 | 203 | 0.0 | 0.0 | 0.00 | 0.00 | 0.00 | 76 | 1014.5 |
| 20260503040012 | 63 | 203 | 0.0 | 0.0 | 0.00 | 0.00 | 0.00 | 73 | 1014.2 |
| 20260503034537 | 65 | 203 | 0.0 | 0.0 | 0.00 | 0.00 | 0.00 | 69 | 1013.9 |
| 20260503033051 | 66 | 203 | 0.0 | 0.0 | 0.00 | 0.00 | 0.00 | 68 | 1013.7 |
| 20260503031611 | 68 | 203 | 0.0 | 0.0 | 0.00 | 0.00 | 0.00 | 65 | 1013.5 |
| 20260503030017 | 69 | 203 | 0.0 | 0.0 | 0.00 | 0.00 | 0.00 | 62 | 1013.4 |
| 20260503024511 | 70 | 203 | 0.0 | 0.0 | 0.00 | 0.00 | 0.00 | 58 | 1013.4 |
| 20260503023026 | 71 | 203 | 0.0 | 0.0 | 0.00 | 0.00 | 0.00 | 57 | 1013.2 |
| 20260503021539 | 72 | 203 | 0.0 | 0.0 | 0.00 | 0.00 | 0.00 | 57 | 1013.2 |
| 20260503020055 | 73 | 203 | 0.0 | 0.0 | 0.00 | 0.00 | 0.00 | 57 | 1013.2 |
| 20260503014554 | 73 | 203 | 0.0 | 0.0 | 0.00 | 0.00 | 0.00 | 56 | 1013.1 |
| 20260503013053 | 73 | 203 | 0.0 | 0.0 | 0.00 | 0.00 | 0.00 | 57 | 1013.1 |
| 20260503011608 | 73 | 203 | 0.0 | 0.0 | 0.00 | 0.00 | 0.00 | 57 | 1013.2 |
| 20260503010002 | 74 | 203 | 0.0 | 0.9 | 0.00 | 0.00 | 0.00 | 57 | 1013.4 |
| 20260503004514 | 74 | 274 | 0.0 | 0.9 | 0.00 | 0.00 | 0.00 | 57 | 1013.5 |
| 20260503003023 | 74 | 113 | 0.0 | 0.9 | 0.00 | 0.00 | 0.00 | 57 | 1013.6 |
| 20260503001523 | 74 | 155 | 0.0 | 0.0 | 0.00 | 0.00 | 0.00 | 55 | 1013.6 |
| 20260503000049 | 74 | 38 | 0.0 | 0.9 | 0.00 | 0.00 | 0.00 | 56 | 1013.7 |
| 20260502234535 | 74 | 78 | 0.0 | 3.5 | 0.00 | 0.00 | 0.00 | 56 | 1013.7 |
| 20260502233045 | 75 | 89 | 0.0 | 0.9 | 0.00 | 0.00 | 0.00 | 54 | 1014.0 |
| 20260502231614 | 74 | 48 | 0.0 | 3.5 | 0.00 | 0.00 | 0.00 | 55 | 1014.2 |
| 20260502230058 | 74 | 122 | 0.0 | 0.9 | 0.00 | 0.00 | 0.00 | 56 | 1014.5 |
| 20260502224506 | 73 | 295 | 0.0 | 0.9 | 0.00 | 0.00 | 0.00 | 56 | 1014.7 |
| 20260502223023 | 74 | 117 | 0.0 | 1.7 | 0.00 | 0.00 | 0.00 | 56 | 1014.8 |
| 20260502221529 | 73 | 153 | 0.0 | 3.5 | 0.00 | 0.00 | 0.00 | 57 | 1015.0 |
| 20260502220017 | 73 | 115 | 0.9 | 3.5 | 0.00 | 0.00 | 0.00 | 57 | 1015.2 |
| 20260502214524 | 73 | 193 | 0.0 | 0.9 | 0.00 | 0.00 | 0.00 | 55 | 1015.3 |
| 20260502213035 | 73 | 186 | 0.0 | 1.7 | 0.00 | 0.00 | 0.00 | 57 | 1015.4 |
| 20260502211537 | 72 | 157 | 0.0 | 1.7 | 0.00 | 0.00 | 0.00 | 59 | 1015.5 |
| 20260502210036 | 71 | 226 | 0.0 | 5.2 | 0.00 | 0.00 | 0.00 | 60 | 1015.6 |
| 20260502204537 | 70 | 161 | 0.0 | 2.6 | 0.00 | 0.00 | 0.00 | 63 | 1015.8 |
| 20260502203046 | 69 | 206 | 0.0 | 2.6 | 0.00 | 0.00 | 0.00 | 63 | 1015.9 |
| 20260502201537 | 68 | 75 | 0.9 | 2.6 | 0.00 | 0.00 | 0.00 | 62 | 1016.0 |
| 20260502200037 | 66 | 236 | 0.0 | 1.7 | 0.00 | 0.00 | 0.00 | 65 | 1016.2 |
| 20260502194540 | 67 | 262 | 0.9 | 3.5 | 0.00 | 0.00 | 0.00 | 63 | 1016.4 |